User: anonymous   Login
Location: Central Coast
(33.3208°S, 151.2336°E)
Time: 01:57:26
(UTC+11:00)
Language:

Tiangong 2 - Orbit

View from above orbital plane
View from above orbital plane
View from above satellite
View from above satellite

Ground track
Ground track

The orbit data is extracted from the following two-line orbital elements,

1 41765U 16057A   17296.14591127  .00006487  00000-0  84841-4 0  9991
2 41765  42.7843 314.7030 0002175  27.0060  37.1959 15.59276410 62957
Epoch (UTC): 23 October 2017 03:30:06
Eccentricity: 0.0002175
inclination: 42.7843°
perigee height: 388 km
apogee height: 391 km
right ascension of ascending node: 314.7030°
argument of perigee: 27.0060°
revolutions per day: 15.59276410
mean anomaly at epoch: 37.1959°
orbit number at epoch: 6295

The dashed part of the orbit path shows where the satellite is in the earth's shadow,  

DLR